Hourly Data Report for September 05, 2010

PETERBOROUGH AWOS
ONTARIO

44°14'00.000" N
78°22'00.000" W
191.40 m
6166420

Download Data

Hourly Data (September 2010)
Hourly Data Report for September 5, 2010
TIME
LST
Temp Definition
°C
Dew Point Definition
°C
Rel Hum Definition
%
Precip. Amount Definition
mm

Wind Dir Definition
10's deg

Wind Spd Definition
km/h
Visibility Definition
km
Stn Press Definition
kPa
Hmdx Definition


Wind Chill Definition


Weather Definition


00:00 11.7 9.2 85   LegendMM LegendMM 15.0 98.34      
01:00 11.1 8.9 86   LegendMM LegendMM 15.0 98.38      
02:00 11.4 9.1 86   LegendMM LegendMM 15.0 98.41      
03:00 10.2 8.5 89   LegendMM LegendMM 15.0 98.44      
04:00 10.8 8.6 86   LegendMM LegendMM 15.0 98.46      
05:00 11.1 8.6 85   LegendMM LegendMM 15.0 98.49      
06:00 10.7 8.5 86   LegendMM LegendMM 15.0 98.56      
07:00 11.9 9.1 83   LegendMM LegendMM 15.0 98.65      
08:00 13.2 9.3 77   LegendMM LegendMM 15.0 98.74      
09:00 13.5 9.4 76   LegendMM LegendMM 15.0 98.81      
10:00 15.3 8.7 65   LegendMM LegendMM 15.0 98.85      
11:00 16.2 8.0 58   LegendMM LegendMM 15.0 98.88      
12:00 13.5 9.8 78   LegendMM LegendMM 15.0 98.94     Rain
13:00 14.8 10.0 73   LegendMM LegendMM 15.0 98.97     Rain
14:00 16.7 10.2 65   LegendMM LegendMM 15.0 98.93      
15:00 17.4 8.5 56   LegendMM LegendMM 15.0 98.94      
16:00 16.2 10.3 68   LegendMM LegendMM 15.0 98.98      
17:00 16.2 10.7 70   LegendMM LegendMM 15.0 99.00      
18:00 15.3 11.0 76   LegendMM LegendMM 15.0 99.06      
19:00 13.5 11.1 85   LegendMM LegendMM 15.0 99.12      
20:00 12.4 9.9 85   LegendMM LegendMM 15.0 99.20      
21:00 9.2 8.9 98   LegendMM LegendMM 15.0 99.24      
22:00 8.0 7.9 99   LegendMM LegendMM 4.0 99.27      
23:00 7.6 7.6 100   LegendMM LegendMM 15.0 99.32      

Notes on Data Quality.

Legend

  • E = Estimated
  • M = Missing
  • NA = Not Available*
  • [empty] = Indicates an unobserved value
Date modified: